Regional Weather Roundup
Issued by NWS Albany, NY

Home | Current Version | Previous Version | Graphics & Text | Print | Product List | Glossary Off
Versions: 1 2 3 4 5 6 7 8 9 10 11 12 13 14 15 16 17 18 19 20 21 22 23 24 25 26 27 28 29 30 31 32 33 34 35 36 37 38 39 40 41 42 43 44 45 46 47 48 49 50

000
ASUS41 KALY 030410
RWRALY

NEW YORK STATE HOURLY WEATHER ROUNDUP
NATIONAL WEATHER SERVICE ALBANY NY
1200 AM EDT THU SEP 03 2015

NOTE: "FAIR" INDICATES FEW OR NO CLOUDS BELOW 12,000 FEET WITH NO
SIGNIFICANT WEATHER AND/OR NO OBSTRUCTIONS TO VISIBILITY.

NYZ032-033-038>043-046>054-057>066-NYZ062>081-030500-
EAST


CITY           SKY/WX    TMP DP  RH WIND       PRES   REMARKS
ALBANY         PTCLDY    74  65  73 CALM      29.90R
GLENS FALLS    PTCLDY    68  66  93 CALM      29.90R FOG
POUGHKEEPSIE   CLEAR     70  65  84 CALM      29.89S
NEWBURGH       CLEAR     70  66  88 CALM      29.92S
MONTGOMERY     CLEAR     67  65  93 CALM      29.91S
WHITE PLAINS   CLEAR     71  67  87 CALM      29.90F
ISLIP          PTCLDY    74  66  76 SW7       29.88F
NEW YORK CITY  CLEAR     78  71  79 S5        29.88F
CENTRAL PARK   CLEAR     79  70  74 CALM      29.92F
$$

NYZ005>009-017-018-044>046-055-056-030500-
CENTRAL


CITY           SKY/WX    TMP DP  RH WIND       PRES   REMARKS
FULTON         FOG       65  64  97 CALM      29.93S VSB 1/4
SYRACUSE       PTCLDY    69  68  96 CALM      29.93S FOG
ROME           PTCLDY    65  63  93 CALM      29.95S
ELMIRA         CLEAR     68  66  93 SW3       29.96F FOG
BINGHAMTON     CLEAR     69  65  86 W3        29.99S
MONTICELLO     CLEAR     64  64 100 CALM      29.98F
$$

NYZ026>034-041>043-030500-
NORTH


CITY           SKY/WX    TMP DP  RH WIND       PRES   REMARKS
WATERTOWN      PTCLDY    68  64  87 CALM      29.92S FOG
FORT DRUM      NOT AVBL
MASSENA        CLOUDY    72  68  87 S5        29.89F
SARANAC LAKE   MOCLDY    59  58  96 SW3       29.95F FOG
PLATTSBURGH    PTCLDY    68  66  93 CALM      29.88F
$$

NYZ001>004-010>016-019>021-030500-
WEST


CITY           SKY/WX    TMP DP  RH WIND       PRES   REMARKS
NIAGARA FALLS  PTCLDY    72  70  93 SW5       29.94S FOG
BUFFALO        MOCLDY    74  69  85 SW9       29.96S
DUNKIRK        CLEAR     71  67  87 S3        29.97S
JAMESTOWN      CLEAR     68  64  88 CALM      30.03S
WELLSVILLE     CLEAR     68  64  87 CALM      30.05F
ROCHESTER      CLEAR     71  67  87 SW5       29.95S
PENN YAN       CLEAR     72  68  87 SW5       29.97S FOG
$$

             KEY
       WCI = WIND CHILL INDEX
       VSB = VISIBILITY
       HX  = HEAT INDEX
$$



USA.gov is the U.S. government's official web portal to all federal, state and local government web resources and services.